Regional Weather Roundup
Issued by NWS

Home | Current Version | Previous Version | Text Only | Print | Product List | Glossary On
Versions: 1 2 3 4 5 6 7 8 9 10 11 12 13 14 15 16 17 18 19 20 21 22 23 24 25 26 27 28
000
ASUS45 KREV 260610
RWRNV
NEVADA REGIONAL WEATHER ROUNDUP
NATIONAL WEATHER SERVICE RENO NV
1100 PM PDT SAT OCT 25 2014

NOTE: "FAIR" INDICATES FEW OR NO CLOUDS BELOW 12,000 FEET WITH NO
SIGNIFICANT WEATHER AND/OR OBSTRUCTIONS TO VISIBILITY.

NVZ001-003-004-260700-
WESTERN NEVADA

CITY           SKY/WX    TMP DP  RH WIND       PRES   REMARKS
RENO           PTCLDY    52  27  38 SW9G22    30.06R
6HR MIN TEMP:  50; 6HR MAX TEMP:  57;

CARSON CITY    MOCLDY    50  19  29 S13G26    30.09S
MINDEN         FAIR      48  19  32 NW9       30.10
SLIDE MTN        N/A     28  28 100 W39         N/A
PYRAMID LAKE     N/A     54 N/A N/A SW9         N/A
FALLON         CLEAR     51  26  37 W8        30.03F
6HR MIN TEMP:  48; 6HR MAX TEMP:  60;

LOVELOCK       CLEAR     41  25  53 SE6       30.05R
6HR MIN TEMP:  41; 6HR MAX TEMP:  62;

HAWTHORNE      CLEAR     52  28  40 S7        30.01S
$$

NVZ002-CAZ072-073-260700-
NORTHERN AND CENTRAL SIERRA

CITY           SKY/WX    TMP DP  RH WIND       PRES   REMARKS
S. LAKE TAHOE  CLEAR     36  28  73 VRB3      30.14S
6HR MIN TEMP:  36; 6HR MAX TEMP:  41; 6HR PCP: TRACE;

TRUCKEE        MOCLDY    37  32  81 S8        30.13S
SQUAW VLY 8000 NOT AVBL
SUSANVILLE     LGT RAIN  46  41  81 NW5       30.07R
BLUE CANYON    LGT RAIN  43  41  93 S14       30.17S VSB 1/4
MAMMOTH LAKES  FAIR      45  16  31 E18G29    30.10R
BRIDGEPORT     FAIR      44  30  57 W13G22    30.09S
$$

NVZ030-031-036-260700-
NORTHERN NEVADA

CITY           SKY/WX    TMP DP  RH WIND       PRES   REMARKS
ELKO           CLOUDY    51  29  42 W5        30.02R
6HR MIN TEMP:  51; 6HR MAX TEMP:  72;

WINNEMUCCA     PTCLDY    41  24  51 SE9       30.04R
6HR MIN TEMP:  41; 6HR MAX TEMP:  60; 6HR PCP: TRACE;

WENDOVER       PTCLDY    63  32  31 W16       29.92R
$$

NVZ035-037-260700-
CENTRAL NEVADA

CITY           SKY/WX    TMP DP  RH WIND       PRES   REMARKS
ELY            CLEAR     52  31  44 S12       30.05R
6HR MIN TEMP:  51; 6HR MAX TEMP:  66;

EUREKA           N/A     48  27  44 E7        30.06
6HR MIN TEMP:  47; 6HR MAX TEMP:  68;

$$

NVZ013-014-260700-
SOUTH CENTRAL NEVADA

CITY           SKY/WX    TMP DP  RH WIND       PRES   REMARKS
TONOPAH        CLEAR     49  28  44 NE6       30.06R
6HR MIN TEMP:  47; 6HR MAX TEMP:  69;

$$

NVZ017-020-022-260700-
SOUTHERN NEVADA

CITY           SKY/WX    TMP DP  RH WIND       PRES   REMARKS
LAS VEGAS      MOCLDY    75  40  28 S12       29.91S
6HR MIN TEMP:  75; 6HR MAX TEMP:  84;

N. LAS VEGAS   PTCLDY    74  39  28 S7        29.93R
6HR MIN TEMP:  73; 6HR MAX TEMP:  84;

NELLIS AFB     MOCLDY    75  42  31 SW12      29.93R
6HR MIN TEMP:  74; 6HR MAX TEMP:  85;

HENDERSON      PTCLDY    73  40  30 S13       29.98S
6HR MIN TEMP:  72; 6HR MAX TEMP:  83;

MERCURY        CLEAR     69  37  30 SW13G28   29.97F
6HR MIN TEMP:  69; 6HR MAX TEMP:  77;

$$



USA.gov is the U.S. government's official web portal to all federal, state and local government web resources and services.